TimeCDT,TemperatureF,Dew PointF,Humidity,Sea Level PressureIn,VisibilityMPH,Wind Direction,Wind SpeedMPH,Gust SpeedMPH,PrecipitationIn,Events,Conditions,WindDirDegrees,DateUTC
12:53 AM,66.9,64.9,93,29.82,10.0,SE,3.5,-,N/A,,Clear,130,2013-10-03 05:53:00
1:53 AM,69.1,66.0,90,29.80,10.0,SSE,6.9,-,N/A,,Clear,160,2013-10-03 06:53:00
2:53 AM,68.0,66.0,93,29.79,10.0,SSE,8.1,-,N/A,,Clear,160,2013-10-03 07:53:00
3:53 AM,70.0,66.9,90,29.81,10.0,West,8.1,-,N/A,,Mostly Cloudy,280,2013-10-03 08:53:00
4:06 AM,68.0,60.8,78,29.85,10.0,NW,11.5,23.0,N/A,Thunderstorm,Overcast,310,2013-10-03 09:06:00
4:18 AM,66.2,60.8,83,29.85,10.0,NNW,17.3,32.2,0.00,Rain-Thunderstorm,Light Thunderstorms and Rain,340,2013-10-03 09:18:00
4:53 AM,63.0,61.0,93,29.83,10.0,North,6.9,-,0.04,Rain-Thunderstorm,Light Rain,360,2013-10-03 09:53:00
5:06 AM,62.6,60.8,94,29.84,8.0,North,5.8,-,0.01,Rain,Light Rain,360,2013-10-03 10:06:00
5:53 AM,63.0,61.0,93,29.83,10.0,NNE,3.5,-,0.01,,Overcast,30,2013-10-03 10:53:00
6:53 AM,62.1,61.0,96,29.85,10.0,Calm,Calm,-,0.01,Rain,Light Rain,0,2013-10-03 11:53:00
7:10 AM,62.6,60.8,94,29.88,9.0,WNW,3.5,-,0.02,Rain-Thunderstorm,Rain,290,2013-10-03 12:10:00
7:40 AM,62.6,60.8,94,29.90,4.0,Calm,Calm,-,0.12,Rain,Rain,0,2013-10-03 12:40:00
7:53 AM,62.1,62.1,100,29.89,4.0,WNW,3.5,-,0.17,Rain,Rain,290,2013-10-03 12:53:00
8:09 AM,62.6,62.6,100,29.90,2.5,Calm,Calm,-,0.07,Rain,Heavy Rain,0,2013-10-03 13:09:00
8:18 AM,62.6,-9999,N/A,29.89,3.0,Calm,Calm,-,0.11,Rain-Thunderstorm,Heavy Rain,0,2013-10-03 13:18:00
8:37 AM,62.6,62.6,100,29.89,5.0,East,3.5,-,0.19,Rain,Heavy Rain,80,2013-10-03 13:37:00
8:53 AM,62.1,62.1,100,29.86,7.0,ESE,6.9,-,0.25,Rain,Heavy Rain,110,2013-10-03 13:53:00
9:13 AM,62.6,62.6,100,29.85,9.0,ESE,9.2,-,0.06,Rain-Thunderstorm,Thunderstorms and Rain,120,2013-10-03 14:13:00
9:30 AM,62.6,62.6,100,29.86,9.0,SE,6.9,-,0.09,Rain,Rain,130,2013-10-03 14:30:00
9:53 AM,62.1,62.1,100,29.83,10.0,ESE,10.4,-,0.09,,Overcast,110,2013-10-03 14:53:00
10:53 AM,64.9,64.0,97,29.78,10.0,ESE,9.2,-,N/A,,Partly Cloudy,120,2013-10-03 15:53:00
11:53 AM,72.0,66.0,81,29.77,10.0,SSE,15.0,21.9,N/A,,Clear,160,2013-10-03 16:53:00
12:53 PM,75.0,64.9,71,29.77,10.0,South,18.4,24.2,N/A,,Clear,170,2013-10-03 17:53:00
1:33 PM,77.0,68.0,74,29.76,10.0,South,17.3,25.3,N/A,,Mostly Cloudy,170,2013-10-03 18:33:00
1:48 PM,77.0,66.2,69,29.75,10.0,South,17.3,29.9,N/A,,Scattered Clouds,170,2013-10-03 18:48:00
1:53 PM,78.1,66.9,68,29.73,10.0,South,13.8,29.9,N/A,,Scattered Clouds,170,2013-10-03 18:53:00
2:07 PM,77.0,68.0,74,29.74,10.0,South,19.6,26.5,N/A,,Mostly Cloudy,170,2013-10-03 19:07:00
2:33 PM,78.8,68.0,69,29.73,10.0,South,16.1,25.3,N/A,,Partly Cloudy,190,2013-10-03 19:33:00
2:53 PM,80.1,68.0,67,29.70,10.0,South,15.0,24.2,N/A,,Clear,180,2013-10-03 19:53:00
3:53 PM,80.1,69.1,69,29.69,10.0,South,11.5,-,N/A,,Partly Cloudy,190,2013-10-03 20:53:00
4:53 PM,80.1,69.1,69,29.70,10.0,South,8.1,-,N/A,,Overcast,190,2013-10-03 21:53:00
5:53 PM,81.0,68.0,65,29.71,10.0,SSW,6.9,-,N/A,,Overcast,200,2013-10-03 22:53:00
6:53 PM,77.0,69.1,76,29.71,10.0,SE,5.8,-,N/A,,Scattered Clouds,140,2013-10-03 23:53:00
7:53 PM,75.9,68.0,76,29.72,10.0,SE,3.5,-,N/A,,Mostly Cloudy,130,2013-10-04 00:53:00
8:53 PM,75.0,69.1,82,29.73,10.0,SE,4.6,-,N/A,,Mostly Cloudy,130,2013-10-04 01:53:00
9:53 PM,75.9,69.1,79,29.73,10.0,ESE,6.9,-,N/A,,Overcast,120,2013-10-04 02:53:00
11:53 PM,73.9,68.0,82,29.75,10.0,SE,6.9,-,N/A,,Mostly Cloudy,130,2013-10-04 04:53:00